Location: Home
(42.5358°N, 72.7383°W)
Time: 00:59:39
(UTC-04:00)

IRIDIUM 152 - Pass Details

Date: 07 July 2022
Orbit: 776 x 779 km, 86.4° (Epoch: 10 August)

Event Time Altitude Azimuth Distance (km) Brightness Sun altitude
Exits shadow 03:35:35 - 165° (SSE) 2,539 ? -15.2°
Reaches altitude 10° 03:36:08 10° 164° (SSE) 2,325 ? -15.1°
Maximum altitude 03:41:12 54° 88° (E) 941 ? -14.6°
Drops below altitude 10° 03:46:18 10° 12° (NNE) 2,341 ? -14.0°
Sets 03:48:41 0° 8° (N) 3,273 ? -13.7°
